DateTimeUTC,F1_A11,F1_S11,BsB_S11,BsG_S11,BsR_S11,BbsB_S11,BbsG_S11,BbsR_S11,BaB_A11,BaG_A11,BaR_A11,Tu_S11,T_S11,Uu_S11,U_S11,P_S11,T1_A11
2021-10-24T19:00:00Z,00000200,21000000,,,,,,,-000.34,-000.94,-000.35,20.4,27.2,,00.0,0624.2,31.2
2021-10-24T19:01:00Z,00000200,21000000,,,,,,,0000.18,0000.19,0000.63,20.4,27.2,,00.0,0624.2,31.2
2021-10-24T19:02:00Z,00000200,21000000,,,,,,,0000.03,0000.09,-000.25,20.3,27.2,,00.0,0624.2,31.2
2021-10-24T19:03:00Z,00000200,61000000,,,,,,,0000.01,0000.21,-000.07,20.3,27.2,,00.0,0624.2,31.2
2021-10-24T19:04:00Z,00000200,41000000,0000.14,0000.00,-000.03,0000.38,0000.01,0000.01,0000.24,-000.04,-000.03,20.3,26.9,,00.0,0625.0,31.2
2021-10-24T19:05:00Z,00000200,01000000,0000.28,0000.12,0000.33,0000.59,-000.01,-000.42,0000.13,0000.37,0000.33,20.2,26.9,,00.0,0625.2,31.2
2021-10-24T19:06:00Z,00000200,01000000,-000.59,-000.10,0000.17,0000.47,-000.47,0000.23,0000.13,-000.26,0000.04,20.3,26.9,,00.0,0625.2,31.2
2021-10-24T19:07:00Z,00000200,01000000,-000.61,0000.33,0000.27,0000.18,0000.01,0000.01,0000.57,0000.52,0000.35,20.3,26.9,,00.0,0625.1,31.2
2021-10-24T19:08:00Z,00000200,01000000,0000.15,0000.10,0000.12,-000.38,-000.03,0000.02,-000.84,-000.33,0000.15,20.4,26.9,,00.0,0625.2,31.2
2021-10-24T19:09:00Z,00000200,01000000,-000.61,-000.04,-000.02,0000.29,-000.09,0000.33,0000.41,0000.44,-000.27,20.4,26.9,,00.0,0625.2,31.3
2021-10-24T19:10:00Z,00000200,01000000,-000.38,0000.40,0000.05,-000.11,-000.28,0000.18,0000.21,0000.20,0000.09,20.5,26.9,,00.0,0625.2,31.3
2021-10-24T19:11:00Z,00000200,01000000,0000.21,-000.35,-000.39,0000.02,-000.42,-000.13,0000.36,0000.41,0000.07,20.5,27.0,,00.0,0625.1,31.3
2021-10-24T19:12:00Z,00000200,01000000,-000.33,0000.33,0000.30,0000.37,-000.21,0000.25,0000.09,-000.15,0000.54,20.6,27.0,,00.0,0625.2,31.3
2021-10-24T19:13:00Z,00000200,01000000,0000.22,0000.23,-000.02,-000.48,-000.43,0000.10,0000.30,-000.00,0000.68,20.7,27.1,,00.0,0625.2,31.3
2021-10-24T19:14:00Z,00000200,01000000,-000.14,-000.11,-000.04,0000.31,0000.00,0000.01,0000.42,0000.56,0000.25,20.6,27.0,,00.0,0625.1,31.3
2021-10-24T19:15:00Z,00000200,01000000,0000.29,0000.12,0000.25,-000.18,-000.17,0000.11,0000.52,0000.32,-000.06,20.6,27.0,,00.0,0625.2,31.3
2021-10-24T19:16:00Z,00000200,01000000,-000.15,-000.08,0000.34,-000.27,-000.26,0000.19,-000.06,0000.38,-000.02,20.5,27.0,,00.0,0625.1,31.2
2021-10-24T19:17:00Z,00000200,01000000,0000.91,0000.34,-000.07,0000.43,-000.15,-000.03,-000.28,0000.04,0000.20,20.4,27.0,,00.0,0625.2,31.2
2021-10-24T19:18:00Z,00000200,01000000,-000.25,-000.17,0000.30,0000.28,0000.01,-000.04,0000.24,0000.14,0000.23,20.4,26.9,,00.0,0625.1,31.2
2021-10-24T19:19:00Z,00000200,01000000,-000.04,0000.01,0000.12,-000.10,-000.61,0000.23,0000.47,0000.18,0000.11,20.4,26.9,,00.0,0625.1,31.2
2021-10-24T19:20:00Z,00000200,01000000,-000.10,0000.29,-000.23,0000.29,-000.01,-000.06,0000.44,0000.09,0000.53,20.3,26.9,,00.0,0625.1,31.2
2021-10-24T19:21:00Z,00000200,01000000,-000.61,0000.20,-000.10,0000.33,-000.10,-000.12,-000.03,0000.71,-000.16,20.3,26.8,,00.0,0625.2,31.2
2021-10-24T19:22:00Z,00000200,01000000,0000.27,0000.35,0000.15,0000.14,-000.06,0000.29,0000.20,0000.12,0000.74,20.4,26.8,,00.0,0625.1,31.2
2021-10-24T19:23:00Z,00000200,01000000,-000.34,0000.14,0000.01,0000.22,-000.13,-000.06,0000.95,0000.02,0000.12,20.4,26.9,,00.0,0625.2,31.2
2021-10-24T19:24:00Z,00000200,01000000,-000.10,0000.04,0000.13,-000.11,-000.19,0000.22,-000.14,0000.74,0000.43,20.5,26.9,,00.0,0625.1,31.2
2021-10-24T19:25:00Z,00000200,01000000,-000.37,0000.22,-000.10,-000.25,-000.06,0000.01,0000.77,0000.98,0000.58,20.5,26.9,,00.0,0625.1,31.3
2021-10-24T19:26:00Z,00000200,01000000,0000.27,0000.28,-000.38,0000.02,0000.02,0000.15,-000.06,-000.20,-000.27,20.5,26.9,,00.0,0625.0,31.3
2021-10-24T19:27:00Z,00000200,01000000,0000.15,0000.03,0000.17,-000.38,-000.10,0000.21,0000.58,0000.25,0000.72,20.5,26.9,,00.0,0625.1,31.3
2021-10-24T19:28:00Z,00000200,01000000,0000.44,0000.56,-000.01,-000.20,-000.11,-000.01,0000.37,0000.41,0000.23,20.4,26.9,,00.0,0625.0,31.3
2021-10-24T19:29:00Z,00000200,01000000,-000.81,0000.16,0000.24,-000.12,0000.12,0000.26,0000.14,0000.34,0000.17,20.4,26.8,,00.0,0625.0,31.2
2021-10-24T19:30:00Z,00000200,01000000,0000.46,0000.26,0000.04,-000.13,-000.04,0000.09,0000.11,0000.26,0000.22,20.3,26.8,,00.0,0625.0,31.2
2021-10-24T19:31:00Z,00000200,01000000,0000.46,-000.08,0000.04,-000.34,-000.18,0000.18,0000.58,0000.33,0000.79,20.2,26.8,,00.0,0625.0,31.2
2021-10-24T19:32:00Z,00000200,01000000,-000.47,-000.09,0000.15,-000.18,-000.12,-000.32,0000.13,0000.09,-000.03,20.2,26.8,,00.0,0625.0,31.2
2021-10-24T19:33:00Z,00000200,01000000,-000.26,0000.06,-000.07,0000.06,-000.14,-000.24,0000.17,0000.17,0000.15,20.1,26.7,,00.0,0624.9,31.2
2021-10-24T19:34:00Z,00000200,01000000,-000.03,0000.05,-000.30,0000.70,-000.06,0000.15,-000.04,0000.33,-000.17,20.0,26.7,,00.0,0625.0,31.2
2021-10-24T19:35:00Z,00000200,01000000,0000.47,0000.13,0000.00,0000.12,-000.60,0000.14,0000.60,-000.08,0000.49,20.0,26.6,,00.0,0625.1,31.2
2021-10-24T19:36:00Z,00000200,01000000,0000.14,0000.05,0000.16,0000.20,-000.05,-000.28,-000.24,0000.00,0000.03,20.1,26.6,,00.0,0625.1,31.2
2021-10-24T19:37:00Z,00000200,01000000,0000.47,0000.15,-000.13,0000.65,-000.27,0000.14,-000.27,-000.12,0000.01,20.1,26.6,,00.0,0625.1,31.2
2021-10-24T19:38:00Z,00000200,01000000,-000.04,-000.01,0000.10,0000.22,0000.19,0000.29,0000.51,0000.38,0000.12,20.2,26.7,,00.0,0625.0,31.2
2021-10-24T19:39:00Z,00000200,01000000,-000.33,0000.11,-000.08,0000.37,0000.00,0000.04,0000.17,-000.03,0000.33,20.2,26.7,,00.0,0625.1,31.2
2021-10-24T19:40:00Z,00000200,01000000,-000.01,0000.42,0000.17,0000.55,-000.14,-000.14,0000.40,0000.83,0000.30,20.3,26.7,,00.0,0625.1,31.2
2021-10-24T19:41:00Z,00000200,01000000,0001.07,0000.04,0000.09,0000.28,-000.04,0000.08,0000.23,-000.20,0000.23,20.4,26.8,,00.0,0625.2,31.2
2021-10-24T19:42:00Z,00000200,01000000,0000.42,0000.01,-000.32,0000.46,-000.30,-000.08,0000.60,0000.50,0000.71,20.4,26.8,,00.0,0625.2,31.2
2021-10-24T19:43:00Z,00000200,01000000,0000.90,0000.11,0000.11,0000.05,0000.15,-000.04,0000.42,0000.39,0000.10,20.5,26.8,,00.0,0625.1,31.2
2021-10-24T19:44:00Z,00000200,01000000,-000.39,0000.05,-000.03,0000.70,-000.08,-000.38,0000.21,0000.77,0000.34,20.5,26.8,,00.0,0625.0,31.2
2021-10-24T19:45:00Z,00000200,01000000,-000.38,0000.04,-000.18,0000.14,-000.17,-000.13,0000.43,0000.03,0000.57,20.4,26.8,,00.0,0625.0,31.2
2021-10-24T19:46:00Z,00000200,01000000,-000.06,0000.21,0000.52,0001.07,-000.06,0000.17,0000.04,0000.38,0000.06,20.4,26.8,,00.0,0625.2,31.2
2021-10-24T19:47:00Z,00000200,01000000,-000.40,-000.03,0000.30,0000.87,0000.04,0000.32,0000.71,0000.37,0000.38,20.3,26.8,,00.0,0625.1,31.2
2021-10-24T19:48:00Z,00000200,01000000,0000.10,-000.29,0000.18,0000.45,-000.16,-000.25,-000.07,-000.03,0000.26,20.3,26.7,,00.0,0625.1,31.2
2021-10-24T19:49:00Z,00000200,01000000,-000.36,0000.18,0000.26,0000.15,-000.16,0000.33,0000.29,0000.47,0000.42,20.2,26.7,,00.0,0625.1,31.2
2021-10-24T19:50:00Z,00000200,01000000,-000.06,0000.56,0000.46,-000.09,-000.22,-000.00,0000.34,0000.75,0000.48,20.2,26.6,,00.0,0625.1,31.2
2021-10-24T19:51:00Z,00000200,01000000,-000.19,0000.00,0000.25,-000.02,-000.61,0000.23,0000.16,-000.04,0000.03,20.2,26.6,,00.0,0625.0,31.2
2021-10-24T19:52:00Z,00000200,01000000,-000.11,0000.21,0000.40,0000.16,0000.28,0000.13,0000.27,-000.16,0000.54,20.2,26.7,,00.0,0624.9,31.2
2021-10-24T19:53:00Z,00000200,01000000,0000.25,0000.16,-000.02,-000.32,-000.12,-000.03,0000.59,0000.55,0000.08,20.3,26.7,,00.0,0624.9,31.2
2021-10-24T19:54:00Z,00000200,01000000,-000.31,0000.09,0000.02,0000.31,-000.17,0000.25,0000.29,0000.11,0000.19,20.3,26.7,,00.0,0624.8,31.2
2021-10-24T19:55:00Z,00000200,01000000,-000.38,-000.05,-000.14,0000.34,-000.23,-000.07,0000.32,0000.72,0000.59,20.4,26.7,,00.0,0624.8,31.2
2021-10-24T19:56:00Z,00000200,01000000,0000.26,0000.31,0000.62,0001.20,-000.05,0000.26,0000.33,0000.15,0000.05,20.4,26.8,,00.0,0624.8,31.3
2021-10-24T19:57:00Z,00000200,41000000,,,,,,,0000.03,0000.36,0000.28,20.5,26.9,,00.0,0625.0,31.3
2021-10-24T19:58:00Z,00000200,61000000,,,,,,,0000.56,0000.34,-000.03,20.2,26.9,,00.0,0624.2,31.3
2021-10-24T19:59:00Z,00000200,21000000,,,,,,,0000.01,0000.02,0000.50,20.2,27.0,,00.0,0624.0,31.2
